[[{"header":{"parameterUnit":"m.s-1","parameterCategory":1,"la1":30.2991,"la2":30.254,"lo1":-89.0895,"lo2":-89.0444,"dy":0.0017,"dx":0.0017,"nx":28,"ny":28,"refTime":"2024-06-28T03:00:00:Z","depth":0,"parameterNumber":2,"parameterNumberName":"U-component_of_WINDS"},"data":[0,0,0,0,0,0,0,0,0,0,0,0,0,0,0,0,0,0,0,0,0,0,0,0,0,0,0,0,0,0,0,0,0,0,0,0,0,0,0,0,0,0,0,0,0,0,0,0,0,0,0,0,0,0,0,0,0,0,5.2688,5.2688,0,5.2718,5.2718,5.2718,5.2656,5.2654,5.2652,5.265,5.2677,5.2679,5.2682,0,0,0,0,0,0,0,0,0,0,0,0,0,5.2572,5.2575,5.2688,5.2688,5.2688,5.2718,5.2718,5.2719,5.2656,5.2654,5.2651,5.2649,5.2676,5.2679,5.2682,0,0,0,0,0,0,0,0,0,0,0,0,0,5.2614,5.2576,5.2688,5.2661,5.2659,5.2718,5.2718,5.2719,5.2657,5.2654,5.2651,5.2648,5.2675,5.2679,5.2683,5.2767,0,0,5.2694,5.2696,0,0,0,0,0,0,0,0,5.2612,5.2619,5.2664,5.2663,5.2661,5.268,5.2687,5.2735,5.2657,5.2657,5.265,5.2646,5.268,5.2683,5.2695,5.2769,5.277,5.2695,5.2697,5.2699,5.27,0,0,0,0,0,0,0,5.2609,5.2617,5.2699,5.2665,5.2663,5.2646,5.2649,5.2696,5.2685,5.2657,5.2653,5.2657,5.2678,5.2692,5.2696,5.277,5.2695,5.2698,5.2701,5.2702,5.2913,5.2916,0,0,0,0,0,0,5.261,5.2615,5.2698,5.27,5.2629,5.2651,5.2654,5.2677,5.2685,5.2683,5.266,5.2654,5.2687,5.2691,5.2696,5.2794,5.2699,5.2702,5.2705,5.291,5.2914,5.2917,0,0,0,0,0,0,5.2608,5.2618,5.2697,5.2657,5.2665,5.2656,5.2682,5.2679,5.2692,5.2687,5.2684,5.2676,5.2684,5.2691,5.275,5.2794,5.2704,5.2708,5.2906,5.2911,5.2915,5.2992,0,0,0,0,0,0,5.2605,5.2618,5.2651,5.2658,5.2668,5.2752,5.2685,5.2682,5.27,5.2693,5.2701,5.2699,5.2683,5.2745,5.2754,5.2798,5.2711,5.2902,5.2908,5.2914,5.2986,5.2999,5.3011,0,0,0,0,0,5.2601,5.2671,5.2653,5.2663,5.2709,5.2754,5.276,5.274,5.2704,5.2736,5.2732,5.2699,5.2789,5.2751,5.2761,5.2807,5.2899,5.2906,5.2913,5.298,5.2997,5.3011,0,0,0,0,0,0,5.2667,5.2671,5.2651,5.2725,5.274,5.2744,5.2784,5.2759,5.2783,5.2775,5.2749,5.2751,5.2815,5.2818,5.2775,5.2889,5.2837,5.2847,5.2885,5.29,5.2913,5.2909,5.2714,0,0,0,0,0,5.2691,5.2729,5.273,5.2795,5.2804,5.2793,5.2812,5.2796,5.2809,5.2815,5.2816,5.2829,5.286,5.2881,5.2909,5.2987,5.2987,5.3024,5.3036,5.3047,5.3054,5.3094,5.311,5.2941,5.2941,5.2941,0,0,5.2739,5.2746,5.2771,5.2809,5.2818,5.2856,5.2798,5.2842,5.2869,5.2821,5.2876,5.2878,5.2891,5.296,5.299,5.2964,5.3101,5.3056,5.3064,5.3066,5.3103,5.3119,5.3133,5.2946,5.2945,5.2945,0,0,5.2846,5.2857,5.2911,5.2923,5.2938,5.2931,5.2944,5.2952,5.2951,5.3008,5.2972,5.3004,5.3059,5.3069,5.3082,5.3195,5.3164,5.3205,5.3269,5.3308,5.3321,5.3332,5.337,5.3384,5.3213,5.3213,5.3214,0,5.2903,5.2961,5.2942,5.2988,5.3004,5.2965,5.3019,5.3031,5.3055,5.3066,5.3038,5.3105,5.3111,5.3181,5.3209,5.3221,5.3234,5.3202,5.3321,5.3332,5.3343,5.3378,5.3393,5.3218,5.3217,5.3217,5.3217,0,5.303,5.307,5.3113,5.3138,5.316,5.321,5.3197,5.3221,5.3204,5.3199,5.3256,5.3263,5.3291,5.3307,5.329,5.3374,5.3357,5.3326,5.3272,5.3364,5.3396,5.341,5.3225,5.3223,5.3222,5.322,0,0,5.3176,5.3192,5.3207,5.3218,5.3233,5.3263,5.3312,5.3341,5.3361,5.338,5.3417,5.3466,5.3436,5.3451,5.3435,5.3469,5.3555,5.3433,5.3433,5.3453,5.3646,5.3667,5.3683,5.3537,5.354,5.3542,5.3644,0,5.328,5.3363,5.3348,5.3428,5.3464,5.3429,5.347,5.3483,5.3481,5.351,5.3507,5.354,5.35,5.3508,5.3542,5.3538,5.3593,5.3531,5.3569,5.3571,5.3564,5.3701,5.3724,5.3819,5.3657,5.3659,5.366,0,5.3411,5.3436,5.352,5.353,5.3544,5.3582,5.3607,5.3637,5.3651,5.3646,5.3663,5.3641,5.3687,5.3637,5.3699,5.3657,5.3672,5.3673,5.3676,5.3676,5.3619,5.3701,5.385,5.3863,5.3681,5.3679,5.3678,0,5.3506,5.3561,5.3618,5.3628,5.3642,5.3668,5.3675,5.3686,5.3705,5.3727,5.3738,5.3766,5.378,5.3801,5.3786,5.3751,5.385,5.3798,5.3845,5.3846,5.3864,5.3863,5.4014,5.3881,5.388,5.388,5.388,0,5.3621,5.3674,5.366,5.3695,5.3752,5.3735,5.3791,5.3793,5.3804,5.3837,5.3809,5.3841,5.3821,5.3851,5.384,5.3892,5.3899,5.3895,5.3891,5.3896,5.3896,5.3903,5.3894,5.3884,5.3883,5.3882,5.3882,0,5.3735,5.3729,5.3788,5.3797,5.38,5.3842,5.3848,5.388,5.3876,5.3919,5.3928,5.3921,5.3955,5.3944,5.398,5.3972,5.4037,5.4026,5.4032,5.4028,5.4075,5.4069,5.4233,5.4252,5.4109,5.4111,5.4112,0,5.3807,5.3847,5.386,5.3881,5.389,5.3925,5.3944,5.3929,5.3949,5.3969,5.3998,5.403,5.4053,5.4109,5.4106,5.4134,5.4121,5.4177,5.4124,5.4128,5.4118,5.4114,5.4117,5.4185,5.4187,5.4188,5.419,0,5.3936,5.3931,5.396,5.3989,5.4013,5.4034,5.4053,5.4071,5.4057,5.4082,5.4117,5.4136,5.4173,5.4204,5.4229,5.4234,5.4209,5.4207,5.4218,5.4222,5.4222,5.422,5.4057,5.4202,5.4201,5.42,5.4199,5.4199,5.4028,5.4061,5.4076,5.4109,5.4122,5.4141,5.4171,5.4172,5.4201,5.423,5.422,5.4259,5.4272,5.4303,5.4312,5.4342,5.432,5.4338,5.4341,5.4345,5.435,5.4221,5.4347,5.4346,5.4346,5.4346,5.4345,0,5.4152,5.416,5.4192,5.4219,5.4245,5.4223,5.4242,5.4265,5.4301,5.4316,5.4341,5.438,5.441,5.4411,5.4439,5.4462,5.4451,5.447,5.4466,5.4467,5.4369,5.4355,5.4478,5.4478,5.4478,5.4478,5.4478,5.4478,5.4219,5.4273,5.427,5.433,5.4338,5.4377,5.439,5.4406,5.4418,5.4464,5.4489,5.449,5.4499,5.4528,5.4554,5.4553,5.4563,5.4585,5.458,5.4488,5.4474,5.4462,5.4448,5.4589,5.4589,5.4675,5.4676,5.4677]},{"header":{"parameterUnit":"m.s-1","parameterCategory":1,"la1":30.2991,"la2":30.254,"lo1":-89.0895,"lo2":-89.0444,"dy":0.0017,"dx":0.0017,"nx":28,"ny":28,"refTime":"2024-06-28T03:00:00:Z","depth":0,"parameterNumber":3,"parameterNumberName":"V-component_of_WINDS"},"data":[0,0,0,0,0,0,0,0,0,0,0,0,0,0,0,0,0,0,0,0,0,0,0,0,0,0,0,0,0,0,0,0,0,0,0,0,0,0,0,0,0,0,0,0,0,0,0,0,0,0,0,0,0,0,0,0,0,0,3.5039,3.504,0,3.5135,3.5136,3.5137,3.5141,3.514,3.5139,3.5138,3.5235,3.5238,3.5242,0,0,0,0,0,0,0,0,0,0,0,0,0,3.4857,3.486,3.5039,3.504,3.5041,3.5135,3.5136,3.5138,3.5141,3.514,3.5139,3.5137,3.5233,3.5238,3.5242,0,0,0,0,0,0,0,0,0,0,0,0,0,3.4943,3.4861,3.5039,3.5055,3.5057,3.5135,3.5136,3.5138,3.5142,3.514,3.5138,3.5137,3.5232,3.5237,3.5243,3.5311,0,0,3.5259,3.5262,0,0,0,0,0,0,0,0,3.4938,3.4949,3.5051,3.5054,3.5056,3.5124,3.5108,3.5196,3.5142,3.5109,3.5138,3.5136,3.5199,3.5207,3.5229,3.5315,3.5319,3.526,3.5263,3.5265,3.5267,0,0,0,0,0,0,0,3.4932,3.4945,3.5077,3.5052,3.5056,3.5056,3.5067,3.5124,3.5163,3.5112,3.5113,3.5124,3.52,3.5224,3.5231,3.5321,3.526,3.5265,3.5268,3.527,3.5467,3.5469,0,0,0,0,0,0,3.4923,3.494,3.5074,3.508,3.4992,3.5061,3.5073,3.5104,3.5162,3.5169,3.5125,3.5124,3.5215,3.5225,3.5235,3.5318,3.5265,3.5271,3.5274,3.5465,3.5468,3.547,0,0,0,0,0,0,3.4919,3.4935,3.507,3.501,3.5027,3.5066,3.5102,3.5107,3.5131,3.5172,3.5179,3.5142,3.5214,3.5227,3.5292,3.5322,3.5273,3.5278,3.5463,3.5466,3.5469,3.5486,0,0,0,0,0,0,3.4914,3.4934,3.496,3.5011,3.5031,3.5126,3.5103,3.511,3.514,3.5139,3.519,3.5197,3.5214,3.5284,3.5297,3.5328,3.5282,3.5461,3.5464,3.5468,3.5483,3.5489,3.5494,0,0,0,0,0,3.4907,3.4961,3.4961,3.4978,3.5065,3.5128,3.5139,3.5158,3.5143,3.5169,3.5196,3.5195,3.5316,3.529,3.5306,3.5339,3.5459,3.5463,3.5468,3.548,3.5488,3.5494,0,0,0,0,0,0,3.4912,3.4967,3.4969,3.504,3.5079,3.5128,3.5163,3.5166,3.521,3.5207,3.5228,3.524,3.5304,3.5328,3.5298,3.5407,3.5386,3.5393,3.539,3.5397,3.5403,3.5396,3.5287,0,0,0,0,0,3.4921,3.4968,3.5014,3.5072,3.5092,3.5124,3.5152,3.5164,3.5205,3.5221,3.5252,3.5292,3.5339,3.5369,3.5415,3.5486,3.5497,3.5516,3.5522,3.5526,3.5533,3.5573,3.5582,3.5484,3.5484,3.5484,0,0,3.494,3.4977,3.5005,3.5074,3.5106,3.5153,3.5138,3.5189,3.5224,3.5229,3.5292,3.5316,3.5362,3.543,3.5462,3.5452,3.5562,3.5532,3.5535,3.554,3.5578,3.5587,3.5595,3.5487,3.5487,3.5486,0,0,3.5001,3.5033,3.5085,3.5117,3.5166,3.5187,3.5199,3.5248,3.5265,3.5329,3.5333,3.5375,3.5455,3.5488,3.5515,3.5587,3.5588,3.5601,3.5631,3.567,3.5677,3.5684,3.571,3.5719,3.5607,3.5608,3.5608,0,3.5019,3.5091,3.5111,3.5163,3.5193,3.52,3.5253,3.5283,3.5343,3.5364,3.5352,3.5453,3.5484,3.556,3.5578,3.5599,3.5614,3.5596,3.5675,3.5682,3.5689,3.5714,3.5723,3.5609,3.5609,3.5609,3.5608,0,3.5111,3.5162,3.5198,3.5257,3.5291,3.5343,3.5371,3.5403,3.5411,3.5433,3.5499,3.5536,3.5589,3.5608,3.5617,3.5686,3.5678,3.567,3.5649,3.5699,3.5723,3.5733,3.5611,3.561,3.561,3.561,0,0,3.5177,3.5246,3.526,3.5286,3.534,3.5379,3.5431,3.5484,3.5511,3.5553,3.5597,3.5665,3.5658,3.5689,3.5701,3.5735,3.579,3.5723,3.5724,3.5734,3.5868,3.5874,3.5885,3.5791,3.5793,3.5794,3.5865,0,3.5243,3.5336,3.5356,3.5437,3.5483,3.549,3.5536,3.5573,3.5595,3.5638,3.5662,3.571,3.5697,3.5716,3.5749,3.5776,3.5817,3.5771,3.5832,3.5834,3.5821,3.5898,3.5904,3.5969,3.5874,3.5876,3.5877,0,3.5333,3.5377,3.5462,3.551,3.5531,3.5571,3.5621,3.5662,3.5705,3.5718,3.5753,3.5761,3.5815,3.5791,3.5866,3.5834,3.586,3.5877,3.588,3.5886,3.5858,3.5906,3.599,3.6,3.5892,3.5891,3.589,0,3.5372,3.5453,3.5515,3.5538,3.5595,3.5623,3.5648,3.569,3.572,3.5764,3.5784,3.5833,3.586,3.5897,3.5919,3.5899,3.5992,3.5969,3.6004,3.6004,3.6024,3.6022,3.6113,3.604,3.604,3.604,3.604,0,3.5444,3.5496,3.5533,3.5571,3.563,3.5652,3.5709,3.5734,3.577,3.5813,3.5822,3.5861,3.5887,3.5931,3.5948,3.6007,3.6019,3.6031,3.6035,3.6031,3.6029,3.6048,3.6044,3.6042,3.6042,3.6041,3.6041,0,3.5498,3.5525,3.5593,3.5642,3.5655,3.5696,3.5738,3.5775,3.5797,3.5851,3.5865,3.59,3.5951,3.5976,3.604,3.6052,3.6119,3.612,3.6105,3.6106,3.614,3.6137,3.6246,3.6262,3.6178,3.6179,3.618,0,3.5542,3.5583,3.5636,3.5666,3.5692,3.5739,3.5771,3.5794,3.5826,3.5878,3.5909,3.5961,3.6003,3.6085,3.6116,3.6165,3.6167,3.6202,3.6174,3.6169,3.6168,3.6165,3.617,3.6207,3.6208,3.6208,3.6209,0,3.5618,3.563,3.5675,3.5725,3.5763,3.5803,3.5843,3.5867,3.5896,3.5932,3.5985,3.6018,3.6084,3.6135,3.6186,3.6211,3.6215,3.6217,3.6228,3.6224,3.6214,3.622,3.6118,3.6215,3.6214,3.6214,3.6213,3.6213,3.5669,3.5705,3.5749,3.5799,3.5832,3.5869,3.5906,3.5933,3.5978,3.6034,3.6044,3.6101,3.6142,3.6212,3.6239,3.6283,3.6275,3.629,3.6294,3.6298,3.63,3.6207,3.6292,3.6292,3.6292,3.6292,3.6292,0,3.5745,3.5774,3.582,3.5876,3.5915,3.5916,3.596,3.5993,3.6043,3.6082,3.6124,3.6185,3.6235,3.627,3.6321,3.6349,3.6352,3.6362,3.636,3.6366,3.6304,3.629,3.6359,3.6359,3.6359,3.6359,3.6359,3.6359,3.579,3.5851,3.5868,3.5946,3.5974,3.603,3.6055,3.6089,3.612,3.6189,3.6231,3.6253,3.629,3.6344,3.639,3.6399,3.6417,3.6427,3.6436,3.6377,3.637,3.6363,3.635,3.6431,3.6431,3.6494,3.6495,3.6495]}]]